STARLINK-1172, 45074

Orbit data source: Space-Track

STARLINK-1172, 45074 is a payload satellite owned by SpaceX/Seattle (US) in LEO that was launched on Wed, 29 Jan 2020 UTC via an FALCON 9 launch vehicle from the Air Force Eastern Test Range (AFETR). Payload-class satellites include a variety of spacecraft equipped with specific instruments for various scientific and technological missions. These include communications satellites like Starlink; space stations such as the ISS; scientific satellites like the Hubble; Earth observation satellites from companies like Planet Labs, Umbra, and HawkEye 360; GPS; miniature CubeSats for education and research; and military/defense satellites.

Loading next visibility...
Identifier
45074, 2020-006AG
Orbit
LEO
Last TLE update
12 hours ago
Origin
Manufacturer
SpaceX/Seattle
Mission
Operational Commercial Communications
Bus & Motor
STARLINK, Unknown motor
Mass
260 kg wet, ~248 kg dry
Launch date (UTC)
2020-01-29 (5 years ago)
Launch vehicle
FALCON 9
Launch site
Air Force Eastern Test Range (AFETR)
Object type
Payload
Rocket body
Debris
Shape & HBR
Box + 1 Pan, 8.86 m
Radar Cross Section
13.562 m², Large (>1 m²)

Expand to show TLE details & history

TLE from 12 hours ago
0 STARLINK-1172
1 45074U 20006AG  25182.74777339  .00004933  00000-0  34976-3 0  9994
2 45074  53.0553 313.1415 0001190  86.4267 273.6858 15.06407295298912
Epoch: 2025-07-01T17:56Z
TLE epoch observation values (Epoch: 2025-07-01T17:56:47.62Z)
Latitude
-0.00005°
Longitude
123.90426°
Altitude
548.016 km
Speed
7.589 km/s
True Right ascension
20h 52m 33s
True Declination
0° 00' 00"
Sunlit
Object was in full shadow at epoch
Visualization orbit readout
Latitude
12.02319°
Longitude
-67.48329°
Altitude
547.103 km
Speed
7.591 km/s
Apparent Right ascension
07h 02m 00s
Apparent Declination
-13° 27' 24"
Sunlit
Object is in daylight
Visualization observer readout
Local Sidereal Time
17:30:55
Azimuth
316.52° NNW
Elevation
-56.837°
Doppler factor
1
Orbital elements
Apogee altitude
548.284 km
Perigee altitude
546.636 km
Semi-major axis
6,925.597 km
Eccentricity
0.00012
Inclination
53.0553°
RAAN
313.1415°
Arg. of periapsis
86.4267°
True anomaly
Unknown
Mean anomaly
273.6858°
Eccentric anomaly
Unknown
Mean motion
3.7658 °/min
Orbital period
95.6 mins
BSTAR
0.00034976
Loading maneuver chart data...
Loading SW <> Apogee altitude chart data...

STARLINK-1172 Visibility forecast

Observer location: undefined°, undefined°

Span
Click to sort rows by Start time (UTC) header in descending order
Start Az.
Max El. time (UTC)
Max El. Az.
Max El.
End time (UTC)
End Az.
4 mins2025-07-02 10:01:17.320Z155.259° SSE2025-07-02 10:03:17.320Z124.15° SE14.171°2025-07-02 10:05:17.320Z93.888° ESE
7 mins2025-07-02 11:39:17.320Z237.071° WSW2025-07-02 11:42:17.320Z329.871° NNW44.03°2025-07-02 11:46:17.320Z47.528° ENE
4 mins2025-07-02 13:21:17.320Z320.311° NNW2025-07-02 13:22:17.320Z339.764° N18.325°2025-07-02 13:25:17.320Z27.386° NE
4 mins2025-07-02 16:42:17.320Z350.323° N2025-07-02 16:44:17.320Z32.405° NE21.052°2025-07-02 16:46:17.320Z67.824° E
6 mins2025-07-02 18:21:17.320Z304.794° NW2025-07-02 18:23:17.320Z281.359° WNW42.18°2025-07-02 18:27:17.320Z137.04° SSE
|